Weather History for Pella, IA

Change the Weather History Date:

Wednesday, February 20, 2013

  Actual Average (KOXV) Record (KOXV)
Temperature  
Mean Temperature 12 °F -  
Max Temperature 24 °F 40 °F 65 °F (1981)
Min Temperature 1 °F 22 °F -7 °F (2008)
Degree Days  
Heating Degree Days 52    
Moisture  
Dew Point 2 °F    
Average Humidity 58    
Maximum Humidity 77    
Minimum Humidity 40    
Precipitation  
Precipitation 0.00 in - - ()
Sea Level Pressure  
Sea Level Pressure 30.37 in    
Wind  
Wind Speed 5 mph (NNE)    
Max Wind Speed 9 mph    
Max Gust Speed -    
Visibility 10 miles    
Events      
Averages and records for this station are not official NWS values.
T = Trace of Precipitation, MM = Missing Value Source: NWS Daily Summary

Daily Weather History Graph

Daily Weather History Graph

Search for Another Location

Airport:

Trip Planner

Search our weather history database for the weather conditions in past years. The results will help you decide how hot, cold, wet, or windy it might be!

Date:

Astronomy

Feb. 20, 2013 Rise Set
Actual Time 6:59 AM CST 5:52 PM CST
Civil Twilight 6:31 AM CST 6:20 PM CST
Nautical Twilight 5:59 AM CST 6:52 PM CST
Astronomical Twilight 5:27 AM CST 7:24 PM CST
Moon 1:11 PM CST (2/20) 3:22 AM CST (2/20)
Length of Visible Light 11h 48m
Length of Day
10h 52m
Waxing Gibbous, 76% of the Moon is Illuminated
Feb 20
Waxing Gibbous
Feb 25
Full
Mar 4
Last Quarter
Mar 11
New
Mar 19
First Quarter

Hourly Weather History & Observations

Time (CST) Temp. Windchill Dew Point Humidity Pressure Visibility Wind Dir Wind Speed Gust Speed Precip Events Conditions
12:15 AM 7.5 °F -5.0 °F -0.4 °F 70% 30.38 in 10.0 mi NNW 8.1 mph - N/A   Clear
12:35 AM 6.8 °F -5.9 °F -0.6 °F 72% 30.39 in 10.0 mi North 8.1 mph - N/A   Clear
12:55 AM 6.1 °F -7.8 °F -0.6 °F 74% 30.40 in 10.0 mi NW 9.2 mph - N/A   Clear
1:15 AM 5.7 °F -7.2 °F -2.0 °F 70% 30.39 in 10.0 mi North 8.1 mph - N/A   Clear
1:35 AM 5.0 °F -6.9 °F -2.4 °F 72% 30.39 in 10.0 mi North 6.9 mph - N/A   Clear
1:55 AM 5.0 °F -8.1 °F -2.2 °F 72% 30.39 in 10.0 mi North 8.1 mph - N/A   Clear
2:15 AM 4.6 °F -8.5 °F -2.6 °F 72% 30.40 in 10.0 mi NNW 8.1 mph - N/A   Clear
2:35 AM 4.5 °F -7.6 °F -2.4 °F 73% 30.40 in 10.0 mi NNW 6.9 mph - N/A   Clear
3:15 AM 3.9 °F -8.2 °F -2.9 °F 73% 30.40 in 10.0 mi NNW 6.9 mph - N/A   Clear
3:35 AM 3.7 °F -7.1 °F -3.3 °F 73% 30.39 in 10.0 mi NNW 5.8 mph - N/A   Clear
3:55 AM 3.6 °F -9.8 °F -3.5 °F 73% 30.39 in 10.0 mi NNW 8.1 mph - N/A   Clear
4:15 AM 3.0 °F -6.4 °F -3.6 °F 74% 30.39 in 10.0 mi NNW 4.6 mph - N/A   Clear
4:35 AM 3.2 °F -10.3 °F -3.5 °F 74% 30.37 in 10.0 mi North 8.1 mph - N/A   Clear
4:55 AM 3.0 °F -11.5 °F -4.0 °F 73% 30.37 in 10.0 mi North 9.2 mph - N/A   Clear
5:15 AM 2.8 °F -10.7 °F -4.2 °F 73% 30.38 in 10.0 mi North 8.1 mph - N/A   Clear
5:35 AM 2.7 °F -6.8 °F -4.2 °F 73% 30.38 in 10.0 mi North 4.6 mph - N/A   Clear
6:15 AM 2.1 °F - -4.5 °F 74% 30.39 in 10.0 mi Calm Calm - N/A   Clear
6:35 AM 1.4 °F -8.3 °F -4.9 °F 75% 30.39 in 10.0 mi NNW 4.6 mph - N/A   Clear
6:55 AM 1.4 °F -6.2 °F -4.5 °F 76% 30.41 in 10.0 mi WNW 3.5 mph - N/A   Clear
7:15 AM 1.4 °F -8.3 °F -4.2 °F 77% 30.41 in 10.0 mi NW 4.6 mph - N/A   Clear
7:35 AM 3.0 °F -6.4 °F -3.8 °F 73% 30.42 in 10.0 mi West 4.6 mph - N/A   Clear
7:55 AM 4.1 °F -8.0 °F -3.3 °F 71% 30.42 in 10.0 mi NW 6.9 mph - N/A   Clear
8:15 AM 5.2 °F -5.4 °F -3.5 °F 68% 30.43 in 10.0 mi North 5.8 mph - N/A   Clear
8:35 AM 5.9 °F -3.0 °F -2.9 °F 67% 30.43 in 10.0 mi NNW 4.6 mph - N/A   Clear
9:15 AM 8.6 °F 0.1 °F -1.5 °F 64% 30.44 in 10.0 mi NNW 4.6 mph - N/A   Clear
9:35 AM 9.0 °F 0.6 °F -0.9 °F 64% 30.44 in 10.0 mi North 4.6 mph - N/A   Clear
9:55 AM 10.0 °F 0.4 °F -0.8 °F 62% 30.43 in 10.0 mi North 5.8 mph - N/A   Clear
10:15 AM 12.2 °F - 0.1 °F 59% 30.44 in 10.0 mi Calm Calm - N/A   Clear
10:35 AM 14.0 °F 3.9 °F 0.9 °F 56% 30.42 in 10.0 mi NE 6.9 mph - N/A   Clear
10:55 AM 15.6 °F 10.0 °F 0.3 °F 51% 30.44 in 10.0 mi ENE 3.5 mph - N/A   Clear
11:15 AM 16.9 °F - 0.1 °F 48% 30.45 in 10.0 mi Calm Calm - N/A   Clear
11:35 AM 17.6 °F - 0.9 °F 48% 30.46 in 10.0 mi Calm Calm - N/A   Clear
11:55 AM 18.3 °F 11.5 °F 1.2 °F 47% 30.44 in 10.0 mi North 4.6 mph - N/A   Clear
12:15 PM 20.1 °F - 2.1 °F 46% 30.43 in 10.0 mi Calm Calm - N/A   Clear
12:35 PM 20.1 °F - 1.8 °F 45% 30.41 in 10.0 mi Calm Calm - N/A   Clear
12:55 PM 21.0 °F - 1.8 °F 43% 30.39 in 10.0 mi Calm Calm - N/A   Clear
1:15 PM 22.1 °F - 2.7 °F 43% 30.38 in 10.0 mi Calm Calm - N/A   Clear
1:35 PM 22.8 °F 16.7 °F 3.2 °F 43% 30.36 in 10.0 mi NNE 4.6 mph - N/A   Clear
1:55 PM 23.7 °F - 3.0 °F 41% 30.36 in 10.0 mi Calm Calm - N/A   Clear
2:15 PM 23.7 °F - 3.4 °F 42% 30.35 in 10.0 mi Calm Calm - N/A   Clear
2:55 PM 23.9 °F - 3.2 °F 41% 30.35 in 10.0 mi Calm Calm - N/A   Clear
3:15 PM 24.8 °F - 3.6 °F 40% 30.35 in 10.0 mi Calm Calm - N/A   Clear
3:35 PM 24.6 °F - 3.7 °F 41% 30.35 in 10.0 mi Calm Calm - N/A   Clear
3:55 PM 24.8 °F 20.5 °F 4.1 °F 41% 30.35 in 10.0 mi NNE 3.5 mph - N/A   Clear
4:15 PM 24.6 °F 20.3 °F 3.9 °F 41% 30.34 in 10.0 mi East 3.5 mph - N/A   Clear
4:35 PM 24.4 °F - 4.3 °F 42% 30.34 in 10.0 mi Calm Calm - N/A   Clear
4:55 PM 24.4 °F - 4.5 °F 42% 30.33 in 10.0 mi Calm Calm - N/A   Clear
5:15 PM 24.3 °F - 4.3 °F 42% 30.33 in 10.0 mi Calm Calm - N/A   Clear
5:35 PM 23.9 °F 19.5 °F 5.0 °F 44% 30.32 in 10.0 mi ENE 3.5 mph - N/A   Clear
5:55 PM 23.7 °F 19.3 °F 5.0 °F 45% 30.32 in 10.0 mi East 3.5 mph - N/A   Clear
6:15 PM 23.4 °F - 5.4 °F 46% 30.31 in 10.0 mi Calm Calm - N/A   Clear
6:35 PM 23.4 °F 18.9 °F 5.9 °F 47% 30.31 in 10.0 mi ENE 3.5 mph - N/A   Clear
6:55 PM 23.4 °F - 6.8 °F 49% 30.31 in 10.0 mi Calm Calm - N/A   Clear
7:15 PM 23.5 °F 17.6 °F 6.6 °F 49% 30.31 in 10.0 mi ENE 4.6 mph - N/A   Clear
7:35 PM 23.5 °F 19.1 °F 7.0 °F 49% 30.31 in 10.0 mi ENE 3.5 mph - N/A   Clear
7:55 PM 23.4 °F 18.9 °F 7.3 °F 50% 30.31 in 10.0 mi East 3.5 mph - N/A   Clear
8:15 PM 23.0 °F 14.7 °F 7.7 °F 52% 30.31 in 10.0 mi ENE 6.9 mph - N/A   Clear
8:35 PM 23.0 °F 17.0 °F 8.6 °F 54% 30.32 in 10.0 mi ENE 4.6 mph - N/A   Clear
9:15 PM 23.0 °F 18.4 °F 9.3 °F 56% 30.32 in 10.0 mi East 3.5 mph - N/A   Clear
9:35 PM 23.0 °F 17.0 °F 9.5 °F 56% 30.32 in 10.0 mi ENE 4.6 mph - N/A   Clear
9:55 PM 23.0 °F 15.8 °F 9.9 °F 57% 30.32 in 10.0 mi East 5.8 mph - N/A   Clear
10:15 PM 23.0 °F 15.8 °F 9.7 °F 57% 30.32 in 10.0 mi East 5.8 mph - N/A   Clear
10:35 PM 22.1 °F 15.9 °F 10.4 °F 61% 30.32 in 10.0 mi East 4.6 mph - N/A   Clear
10:55 PM 21.9 °F 17.2 °F 10.4 °F 61% 30.33 in 10.0 mi East 3.5 mph - N/A   Clear
11:15 PM 21.2 °F 14.9 °F 10.4 °F 63% 30.32 in 10.0 mi ENE 4.6 mph - N/A   Clear
11:35 PM 21.2 °F 16.4 °F 10.4 °F 63% 30.32 in 10.0 mi East 3.5 mph - N/A   Clear
11:55 PM 20.8 °F 16.0 °F 10.8 °F 65% 30.32 in 10.0 mi East 3.5 mph - N/A   Clear